Weather Roundup
Issued by NWS Corpus Christi, TX

Home | Current Version | Previous Version | Text Only | Print | Product List | Glossary On
Versions: 1 2 3 4 5 6 7 8 9 10 11 12 13 14 15 16 17 18 19 20 21 22 23 24 25 26 27 28 29 30 31 32 33 34 35 36 37 38 39 40 41 42 43 44 45 46 47 48 49 50
000
ASUS44 KCRP 301510
HRRCRP

SOUTH TEXAS REGIONAL WEATHER ROUNDUP
NATIONAL WEATHER SERVICE CORPUS CHRISTI TX
1000 AM CDT FRI SEP 30 2016


TXZ229>244-301600-
...CORPUS CHRISTI AREA OBSERVATIONS...

CITY           SKY/WX    TMP DP  RH WIND       PRES   REMARKS
CORPUS CHRISTI MOSUNNY   75  58  55 NE14      30.17R
NAS CORPUS CHR MOSUNNY   76  64  66 N15       30.16R
ROCKPORT       SUNNY     74  57  55 N9        30.16S
KINGSVILLE NAS MOSUNNY   73  60  63 N7        30.17R
ALICE          SUNNY     74  56  53 NE10      30.17S
FALFURRIAS     SUNNY     75  54  46 NE9       30.16S
$$

...VICTORIA AREA OBSERVATIONS...

CITY           SKY/WX    TMP DP  RH WIND       PRES   REMARKS
VICTORIA       SUNNY     69  57  65 NE6       30.19R
BEEVILLE       FAIR      72  58  60 NE7       30.19R
PLEASANTON     SUNNY     68  54  59 N6        30.22S
SAN ANTONIO    MOSUNNY   70  52  52 NE6       30.23R
$$

...LAREDO AREA OBSERVATIONS...

CITY           SKY/WX    TMP DP  RH WIND       PRES   REMARKS
LAREDO         SUNNY     73  55  53 NE8       30.21R
COTULLA        SUNNY     73  52  47 E8        30.21R
DEL RIO        SUNNY     69  58  67 VRB3      30.23S
MCALLEN        MOSUNNY   80  63  55 N9        30.15R
HEBBRONVILLE   SUNNY     73  52  47 NE9       30.20R
$$

...OTHER TEXAS OBSERVATIONS...

CITY           SKY/WX    TMP DP  RH WIND       PRES   REMARKS
BROWNSVILLE    PTSUNNY   83  73  72 VRB6      30.11R
HOUSTON        MOSUNNY   71  57  61 N6        30.19R
COL. STATION   SUNNY     70  53  54 NE6       30.21R
AUSTIN         MOSUNNY   68  55  63 NE5       30.22R
WACO           SUNNY     68  55  63 N6        30.23R
FORT WORTH     MOSUNNY   68  55  63 N6        30.22S
WICHITA FALLS  SUNNY     63  53  70 E3        30.26S
LUBBOCK        MOSUNNY   62  47  57 S8        30.29S
EL PASO        CLOUDY    60  57  89 N7        30.30R
$$

...MARINE OBSERVATIONS...

STATION/POSITION TIME  SKY/WX   TEMP    WIND        PRES    VSBY  WAVE   SWELL
                                AIR SEA DIR/SP/G                  HT/PER HT/PER
                 (UTC)          (F)     (DEG/KT/KT) (MB)    (MI)  (FT/S) (FT/S)
PORT ARANSAS     1400            72 82  360/ 14/ 15 1020.7R
BUOY 90 E PORT A 1450            78 86   30/  8/ 12 1020.1R         3/ 6   3/ 6
BUOY 45 SE BAFFI 1450            81 84   40/  8/ 12 1019.6R         4/ 6   3/ 6
BUOY 200 E PT IS 1450            83 86   40/ 14/ 16 1017.4R         3/ 5
BUOY 15 E GALVES 1450            74 84   50/ 14/ 17 1020.9R         3/ 5
$$




USA.gov is the U.S. government's official web portal to all federal, state and local government web resources and services.